Terminal Aerodrome Forecast
Issued by NWS

Home | Current Version | Previous Version | Text Only | Print | Product List | Glossary Off
Versions: 1 2 3 4 5 6 7 8 9 10 11 12 13 14 15 16 17 18 19 20 21 22 23 24 25 26 27 28 29 30 31

049
FTUS43 KABR 030819 AAB
TAFATY
TAF AMD
KATY 030819Z 0308/0406 35015KT P6SM OVC025
     FM031400 33012KT P6SM SCT029 BKN080
     FM032100 27008KT P6SM SCT100 BKN250=

USA.gov is the U.S. government's official web portal to all federal, state and local government web resources and services.